Location: Heiligenberg
(48.5381°N, 7.3897°E)
Time: 22:42:16
(UTC+00:00)

Cosmos 839 Rocket - Pass Details

Date: 26 May 2022
Orbit: 968 x 2085 km, 65.9° (Epoch: 02 July)

Event Time Altitude Azimuth Distance (km) Brightness Sun altitude
Rises 00:35:04 0° 321° (NW) 3,686 7.5 -18.7°
Reaches altitude 10° 00:37:31 10° 318° (NW) 2,772 6.8 -18.6°
Maximum altitude 00:43:46 62° 240° (WSW) 1,221 4.2 -18.3°
Enters shadow 00:49:13 19° 165° (SSE) 2,562 5.7 -18.0°
